DW6386 Weather Reports


time (UTC)temp
C
wind
direction
speed
KPH
gust
KPH
rain 1hr
cm
rain 24hr
cm
rain mn
cm
humidity
%
barometer
mb
20260504044524 7 90 0.0 0.0 0.00 0.00 0.00 85 1016.4
20260504043021 7 87 0.0 0.0 0.00 0.00 0.00 82 1016.4
20260504041518 7 87 0.0 0.0 0.00 0.00 0.00 82 1016.3
20260504040016 7 87 0.0 0.0 0.00 0.00 0.00 80 1016.3
20260504034526 8 87 0.0 0.0 0.00 0.00 0.00 80 1016.5
20260504033015 8 87 0.0 0.0 0.00 0.00 0.00 78 1016.4
20260504031514 8 86 0.0 0.0 0.00 0.00 0.00 74 1016.3
20260504030014 9 86 0.0 0.0 0.00 0.00 0.00 73 1016.3
20260504024514 9 86 0.0 0.0 0.00 0.00 0.00 71 1016.2
20260504023012 10 86 0.0 0.0 0.00 0.00 0.00 69 1016.0
20260504021512 10 81 0.0 0.0 0.00 0.00 0.00 69 1015.6
20260504020014 11 81 0.0 0.0 0.00 0.00 0.00 67 1015.6
20260504014517 11 81 0.0 0.0 0.00 0.00 0.00 65 1015.4
20260504013010 11 80 0.0 0.0 0.00 0.00 0.00 63 1015.4
20260504011510 11 75 0.0 0.0 0.00 0.00 0.00 62 1015.4
20260504010132 12 73 0.0 0.0 0.00 0.00 0.00 56 1015.4
20260504004508 13 73 0.0 0.0 0.00 0.00 0.00 54 1015.4
20260504003007 14 73 0.0 0.0 0.00 0.00 0.00 51 1015.3
20260504001507 15 72 0.0 0.0 0.00 0.00 0.00 46 1015.2
20260504000007 16 64 0.0 0.0 0.00 0.00 0.00 45 1015.1
20260503234508 16 69 0.0 0.0 0.00 0.00 0.00 44 1015.2
20260503233003 17 80 0.0 3.2 0.00 0.00 0.00 51 1015.3
20260503231502 17 65 0.0 3.2 0.00 0.00 0.00 51 1015.4
20260503230103 17 63 0.0 6.4 0.00 0.00 0.00 49 1015.6
20260503224559 18 243 0.0 4.8 0.00 0.00 0.00 49 1015.7
20260503223059 18 84 0.0 8.0 0.00 0.00 0.00 47 1015.7
20260503221557 17 58 0.0 8.0 0.00 0.00 0.00 48 1015.8
20260503220058 17 2 0.0 9.7 0.00 0.00 0.00 47 1015.9
20260503214558 17 334 0.0 9.7 0.00 0.00 0.00 48 1016.1
20260503213123 18 48 3.2 9.7 0.00 0.00 0.00 46 1016.1
20260503211617 18 40 0.0 9.7 0.00 0.00 0.00 47 1016.3
20260503210048 18 284 0.0 11.3 0.00 0.00 0.00 46 1016.4
20260503204601 18 303 1.6 6.4 0.00 0.00 0.00 45 1016.7
20260503203044 18 63 3.2 16.1 0.00 0.00 0.00 47 1016.9
20260503201540 18 70 1.6 11.3 0.00 0.00 0.00 46 1017.1
20260503200038 18 73 1.6 12.9 0.00 0.00 0.00 47 1017.5
20260503194537 17 257 1.6 11.3 0.00 0.00 0.00 46 1017.9
20260503193035 17 211 3.2 9.7 0.00 0.00 0.00 45 1018.1
20260503191544 18 32 3.2 11.3 0.00 0.00 0.00 43 1018.3
20260503190033 17 104 0.0 8.0 0.00 0.00 0.00 44 1018.6
20260503184530 17 293 6.4 12.9 0.00 0.00 0.00 41 1018.7
20260503183035 17 49 0.0 9.7 0.00 0.00 0.00 44 1018.9
20260503181523 17 46 0.0 12.9 0.00 0.00 0.00 46 1019.1
20260503180029 17 39 6.4 12.9 0.00 0.00 0.00 48 1019.3
20260503174524 17 259 1.6 8.0 0.00 0.00 0.00 45 1019.7
20260503173019 16 66 1.6 9.7 0.00 0.00 0.00 50 1019.9
20260503171519 16 107 1.6 9.7 0.00 0.00 0.00 48 1020.0
20260503090107 5 153 0.0 0.0 0.00 0.00 0.00 91 1019.0
20260503081559 6 153 0.0 0.0 0.00 0.00 0.00 90 1018.6